Home > Weather > Ski > Past weeks

Flag for Norway Past Weather in Ski, Norway — Yesterday and Last 2 Weeks

Now
55 °F

Partly cloudy.


Feels Like: 51 °F
Forecast: 57 / 70 °F
Wind: 21 mph from South

Location: Statfjord B

Current Time: Jul 27, 2016 at 3:26:54 AM

Latest Report: Jul 27, 2016 at 2:50 AM


Visibility: N/A

Pressure: 29.83 "Hg

Humidity: 94%

Dew Point: 54 °F

Location of SkiLocation

Past Weather in Ski — Graph

°F

Ski Temperature Yesterday

Maximum temperature yesterday: 57 °F (at 12:50 PM)
Minimum temperature yesterday: 54 °F (at 5:50 AM)
Average temperature yesterday: 56 °F

High & Low Weather Summary for the Past Weeks

 TemperatureHumidityPressure
High75 °F (Jul 21, 8:20 AM)100% (Jul 12, 1:20 AM)30.12 "Hg (Jul 12, 1:20 AM)
Low52 °F (Jul 13, 11:50 PM)54% (Jul 21, 8:20 AM)29.47 "Hg (Jul 12, 1:20 AM)
Average57 °F90%29.90 "Hg
* Reported Jul 12 1:20 AM — Jul 27 1:50 AM, Ski, Weather by CustomWeather, © 2016

Note: Actual official high and low records may vary slightly from our data, if they occured in-between our weather recording intervals... More about our weather records

Advertising

Ski Weather History for the Previous 24 Hours

Scroll right to see more
 ConditionsComfort  
Time TempWeatherWind HumidityBarometerVisibility
1:50 AM
Wed, Jul 27
57 °FPassing clouds.20 mph88%29.86 "HgN/A
1:20 AM57 °FPassing clouds.21 mph88%29.86 "HgN/A
12:50 AM57 °FPartly cloudy.21 mph88%29.86 "HgN/A
12:20 AM57 °FPartly cloudy.22 mph88%29.86 "HgN/A
11:50 PM
Tue, Jul 26
57 °FPartly cloudy.22 mph94%29.86 "HgN/A
11:20 PM57 °FPassing clouds.22 mph88%29.89 "HgN/A
10:50 PM55 °FBroken clouds.23 mph94%29.89 "HgN/A
10:20 PM55 °FSprinkles. Partly sunny.23 mph94%29.89 "HgN/A
9:50 PM55 °FDrizzle. Partly sunny.23 mph94%29.89 "HgN/A
9:20 PM55 °FPartly sunny.22 mph94%29.89 "HgN/A
8:50 PM55 °FBroken clouds.23 mph94%29.89 "HgN/A
8:20 PM55 °FBroken clouds.24 mph94%29.86 "HgN/A
7:50 PM55 °FPartly sunny.22 mph94%29.86 "HgN/A
7:20 PM57 °FPartly sunny.23 mph88%29.86 "HgN/A
6:50 PM57 °FPassing clouds.25 mph88%29.86 "HgN/A
6:20 PM57 °FBroken clouds.24 mph94%29.86 "HgN/A
5:50 PM57 °FBroken clouds.24 mph88%29.86 "HgN/A
5:20 PM57 °FBroken clouds.24 mph94%29.86 "HgN/A
4:50 PM55 °FPartly sunny.25 mph94%29.86 "HgN/A
4:20 PM57 °FPartly sunny.28 mph88%29.86 "HgN/A
3:50 PM55 °FBroken clouds.29 mph94%29.86 "HgN/A
3:20 PM55 °FSprinkles. Partly sunny.28 mph94%29.86 "Hg4 mi
2:50 PM55 °FPartly sunny.25 mph94%29.86 "HgN/A
2:20 PM57 °FPartly sunny.26 mph88%29.83 "HgN/A
1:50 PM57 °FPartly sunny.24 mph82%29.83 "HgN/A
1:20 PM57 °FPartly sunny.28 mph88%29.83 "HgN/A
12:50 PM57 °FBroken clouds.26 mph88%29.83 "HgN/A
12:20 PM55 °FPartly sunny.29 mph88%29.83 "HgN/A
11:50 AM55 °FSprinkles. Broken clouds.25 mph94%29.80 "HgN/A
11:20 AM55 °FPartly sunny.26 mph94%29.80 "HgN/A
10:50 AM55 °FPartly sunny.28 mph88%29.80 "HgN/A
10:20 AM55 °FPartly sunny.26 mph94%29.80 "HgN/A
9:50 AM55 °FPartly sunny.26 mph94%29.80 "HgN/A
9:20 AM55 °FPartly sunny.28 mph94%29.80 "HgN/A
8:50 AM55 °FPartly sunny.29 mph88%29.77 "HgN/A
8:20 AM54 °FSprinkles. Partly sunny.28 mph100%29.77 "HgN/A
7:50 AM55 °FSprinkles. Partly sunny.30 mph94%29.77 "HgN/A
7:20 AM55 °FPartly sunny.30 mph88%29.77 "HgN/A
6:50 AM55 °FPartly sunny.28 mph94%29.77 "HgN/A
6:20 AM55 °FBroken clouds.25 mph94%29.80 "HgN/A
5:50 AM54 °FSprinkles. Partly sunny.28 mph100%29.80 "HgN/A
5:20 AM55 °FPassing clouds.29 mph88%29.80 "HgN/A
4:50 AM55 °FPassing clouds.29 mph88%29.80 "HgN/A
4:20 AM55 °FPartly cloudy.29 mph88%29.80 "HgN/A
3:50 AM55 °FPartly cloudy.28 mph88%29.80 "HgN/A
3:20 AM55 °FPartly cloudy.25 mph88%29.80 "HgN/A
Weather by CustomWeather, © 2016

See weather overviewHow to use our weather pages